SL-8 DEB *, 3045

Orbit data source: Space-Track

SL-8 DEB *, 3045 is space debris in LEO originally from a launch on Fri, 03 Sep 1965 UTC launched from the Tyuratam Missile And Space Complex (TTMTR). Debris objects in space refer to the collection of defunct objects orbiting the Earth. Examples of debris include non-operational satellites, rocket bodies, and fragments generated from explosions, collisions, or faulty payload assembly.

Loading next visibility...
Identifier
3045, 1965-070G
Orbit
LEO
Country
Flag of CISCIS
Related business
Manufacturer
Unknown
Mission
Spacecraft
Bus & Motor
Unknown
Mass
Unknown
Launch date (UTC)
1965-09-03 (60 years ago)
Launch vehicle
Unknown
Launch site
Tyuratam Missile And Space Complex (TTMTR)
Object type
Payload
Rocket body
Debris
Shape & HBR
Unknown shape, 0.1 m
Radar Cross Section
Small (<0.1 m²)

Expand to show TLE details & history
Last TLE update: 2 days ago

TLE from 2 days ago
0 SL-8 DEB *
1 03045U 65070G   25303.95904255 -.00000316  00000-0 -13450-2 0  9999
2 03045  55.4279 144.1023 0287434 185.1869 321.6024 12.44561162660391
Epoch: 2025-10-30T23:01Z
TLE epoch observation values (Epoch: 2025-10-30T23:01:01.276Z)
Latitude
28.49854°
Longitude
-82.51901°
Altitude
1,314.39 km
Speed
7.282 km/s
True Right ascension
20h 08m 59s
True Declination
28° 21' 54"
Sunlit
Object was in daylight at epoch
Visualization orbit readout
Latitude
Unknown
Longitude
Unknown
Altitude
Unknown
Speed
Unknown
Apparent Right ascension
Unknown
Apparent Declination
Unknown
Sunlit
N/A
Visualization observer readout
Local Sidereal Time
05:11:02
Azimuth
Unknown
Elevation
Unknown
Doppler factor
Unknown
Orbital elements
Apogee altitude
1,713.314 km
Perigee altitude
1,261.159 km
Semi-major axis
7,865.373 km
Eccentricity
0.02874
Inclination
55.4279°
RAAN
144.1023°
Arg. of periapsis
185.1869°
True anomaly
319.49787°
Mean anomaly
321.6024°
Eccentric anomaly
320.5561°
Mean motion
3.11146 °/min
Orbital period
115.7 mins
BSTAR
-0.001345
Loading maneuver chart data...
Computing Atmospheric mass density...
Loading historical data...
Loading historical data...
Loading historical data...
Loading historical data...
Loading historical data...
Loading historical data...
Loading historical data...
Other satellites on launch #70 in the year 1965 (1965-09-03 UTC)

Documentation

Showing up to 5 results
|